Weather in Nedokura

Russia / Krasnoyarsk Krai     58°34′36″N   100°37′10″E
temp.,
°C
wind,
m/s
gust,
m/s
humid.,
%
clouds,
%
prec.,
mm/h
press.,
hPa
HPBL,
m
8 may, sat
sat801:00+2se31187100 0.0 1009406
04:000se2792100 0.0 1010200
07:00+1sse2698100 1.8 1009227
10:00+2sse1299100 2.1 1009163
13:00+2wsw1299100 2.7 1010152
16:00+6nnw138241 0.0 1010573
19:00+5ne128867 0.0 101084
22:00+3se1196100 0.3 101013
9 may, sun
sun901:00+3se1199100 1.8 101047
04:00+2e1199100 0.7 101056
07:00+2ne1299100 1.8 1011465
10:00+2n1199100 2.8 1012195
13:00+4n1495100 3.5 1012284
16:00+8nne357498 0.0 1011999
19:00+8nne3883100 0.8 1012353
22:00+3n2393100 0.3 101561
10 may, mon
mon1001:00+1n239498 0.3 101654
04:000nnw23965 0.0 101855
07:00+4nne38835 0.0 1019464
10:00+8ne576571 0.1 10191427
13:00+9nne565799 0.3 10191640
16:00+11ne4646100 0.1 10192095
19:00+9nne366367 0.2 1020229
22:00+4n11875 0.1 102211
11 may, tue
tue1101:00+2n2292100 0.1 102217
04:000n129646 0.0 102217
07:00+4nne248067 0.0 1022402
10:00+8ne3452100 0.0 10211251
13:00+10ne3441100 0.0 10201836
16:00+9nne4443100 0.0 10201668
19:00+7nne355892 0.0 10201027
22:00+3ne3107187 0.0 1021347
12 may, wed
wed1201:000nne22895 0.0 102131
04:00−2nne22955 0.0 102126
07:00+2ne25655 0.0 1021594
10:00+6ne4639100 0.0 10192082
13:00+7nne4537100 0.0 10182372
16:00+7nne4538100 0.0 10181962
19:00+6nne365022 0.3 1019579
22:00+1nnw22705 0.0 102015